Regional Weather Roundup
Issued by NWS Upton, NY

Current Version | Previous Version | Graphics & Text | Print | Product List | Glossary Off
Versions: 1 2 3 4 5 6 7 8 9 10 11 12 13 14 15 16 17 18 19 20 21 22 23 24 25 26 27 28 29 30 31 32

000
ASUS41 KOKX 230005
RWROKX

Regional Weather Roundup
National Weather Service New York NY
700 PM EST THU FEB 22 2018

Note: "FAIR" indicates few or no clouds below 12,000 feet with no
significant weather and/or obstructions to visibility.

NYZ071-072-176-178-NJZ106-104-230100-
New York City Metro Area

CITY           SKY/WX    TMP DP  RH WIND       PRES   REMARKS
Central Park   CLOUDY    38  35  89 NE10      30.66F WCI  31
Bronx Bot Gard   N/A     37  34  87 E7        30.63F WCI  32
Bronx Lehman C NOT AVBL
LaGuardia Arpt CLOUDY    39  35  86 NE13      30.64S WCI  31
Queens College NOT AVBL
Kennedy Intl   CLOUDY    38  36  92 NE15      30.65S WCI  29
Breezy Point   NOT AVBL
Brooklyn Coll  NOT AVBL
Staten Island  NOT AVBL
Newark/Liberty CLOUDY    39  36  89 NE12      30.63F WCI  32
Teterboro      CLOUDY    39  36  89 NE15G21   30.63F WCI  31
$$

NYZ177-179-078>081-230100-
Long Island New York

CITY           SKY/WX    TMP DP  RH WIND       PRES   REMARKS
Jones Beach    NOT AVBL
Wantagh        NOT AVBL
Hempstead        N/A     37  36  93 NE3       30.67S
Matinecock Pt  NOT AVBL
Farmingdale    CLOUDY    36  34  92 NE12      30.65S WCI  28
MacArthur/ISP  CLOUDY    35  35 100 N12       30.64S FOG     WCI  27
Shirley        CLOUDY    36  36 100 N7        30.64F WCI  30
Mt Sinai Harb  NOT AVBL
Westhampton    CLOUDY    38  37  97 NE9       30.65F WCI  31
East Hampton   CLOUDY    36  34  93 NE6       30.65S WCI  31
Southold       NOT AVBL
Montauk        NOT AVBL
$$

NYZ052-065-067-230100-
Hudson Valley

CITY           SKY/WX    TMP DP  RH WIND       PRES   REMARKS
White Plains   CLOUDY    36  34  92 NE7       30.62F WCI  30
Larchmont Harb NOT AVBL
Croton On Huds NOT AVBL
Somers         NOT AVBL
Brewster       NOT AVBL
Newburgh       CLOUDY    32  32 100 E7        30.63F FOG     WCI  26
Montgomery     CLOUDY    34  31  88 CALM      30.62F
Otisville      NOT AVBL
Warwick        NOT AVBL
Suffern        NOT AVBL
Poughkeepsie   CLOUDY    33  30  88 CALM      30.64F
Albany         FAIR      25  22  88 N5        30.68R WCI  19
$$

NJZ001-105-106-008-010-013-015-019>022-104-230100-
New Jersey

CITY           SKY/WX    TMP DP  RH WIND       PRES   REMARKS
Newark/Liberty CLOUDY    39  36  89 NE12      30.63F WCI  32
Teterboro      CLOUDY    39  36  89 NE15G21   30.63F WCI  31
Caldwell       CLOUDY    37  37 100 E6        30.63F WCI  32
Somerville     CLOUDY    37  36  96 NE5       30.61F WCI  33
Linden         CLOUDY    38  35  89 NE10      30.65F WCI  31
Perth Amboy    NOT AVBL
Sussex         CLOUDY    34  33  96 NE6       30.61F WCI  29
Andover          N/A     34  33  96 VRB5      30.60F WCI  30
Trenton        CLOUDY    39  37  92 NE9       30.60S WCI  33
Millville      CLOUDY    39  37  92 NE13      30.59R WCI  31
Atlantic City  CLOUDY    40  38  93 NE16      30.59F WCI  31
Wrightstown    CLOUDY    38  37  93 E8        30.57  WCI  33
Toms River     CLOUDY    38  37  97 E7        30.61F WCI  33
Belmar         CLOUDY    38  36  92 NE10      30.63S WCI  31
$$

PAZ047>061-062-071-230100-
Eastern Pennsylvania

CITY           SKY/WX    TMP DP  RH WIND       PRES   REMARKS
Philadelphia   CLOUDY    40  37  89 E13       30.60F WCI  32
Allentown      CLOUDY    38  34  85 E13       30.59F WCI  30
Scranton       CLOUDY    37  35  92 NE6       30.57F WCI  32
$$

CTZ002-004>006-009-010-012-RIZ004-006-007-MAZ004-011-015-230100-
Southern New England

 In CT

CITY           SKY/WX    TMP DP  RH WIND       PRES   REMARKS
Bradley Intl   CLOUDY    33  31  92 N3        30.66F
Hartford       CLOUDY    34  32  92 N3        30.67F
Danbury        CLOUDY    35  32  88 E7        30.64F WCI  29
Wtrbury/Oxford MOCLDY    32  31  96 NE6       30.64F WCI  26
Norwalk Harbor NOT AVBL
Bridgeport     CLOUDY    36  32  85 NE9       30.66S WCI  29
Meriden        CLOUDY    33  31  92 N6        30.67F WCI  28
New Haven      CLOUDY    35  32  88 N9        30.65F WCI  28
Chester        CLOUDY    34  32  93 N7        30.64F WCI  28
Groton         CLOUDY    37  32  82 NE12      30.66S WCI  29
Willimantic    CLOUDY    35  33  92 CALM      30.67S

 In RI

CITY           SKY/WX    TMP DP  RH WIND       PRES   REMARKS
Providence     DRIZZLE   34  32  92 NE9       30.68F WCI  27
Block Island   LGT RAIN  34  32  92 NE13G18   30.68R WCI  25
Westerly       CLOUDY    36  35  96 NE3       30.67S

In MA

CITY           SKY/WX    TMP DP  RH WIND       PRES   REMARKS
Boston         LGT SNOW  32  31  96 SE3       30.67F FOG
Worcester      CLOUDY    30  29  96 CALM      30.61F
Westfield      CLOUDY    32  32 100 CALM      30.65F FOG
Provincetown   LGT SNOW  33  30  88 NE8       30.68F FOG     WCI  26
Nantucket      LGT RAIN  35  34  96 N18       30.66R WCI  24
$$

ANZ330-335-338-340-345-350-353-355-230100-
Coastal Marine Observations


STATION/POSITION TIME  SKY/WX   TEMP    WIND        PRES    VSBY  WAVE
                                AIR SEA DIR/SP/G                  HT/PER
                 (UTC)          (F)     (DEG/KT/KT) (MB)    (MI)  (FT/S)
NY Harb Entrance 2350            38 41   30/ 12/ 16 1037.5          5/ 7
20 S Fire Island 2350            40 42   70/ 17/ 21 1037.1          7/ 7
15 E Barnegat Li 2330               42                N/A           8/ 8
Hudson Canyon    2350            41 46   40/ 27/ 31 1035.3          9/ 7
Kings Point      2324            37 38   80/  6/  9 1038.7
Execution Rocks  NOT AVBL
Western LI Sound NOT AVBL
Central LI Sound 2330            36     360/ 14/ 17   N/A           1
Robbins Reef     2330            38      50/ 14/ 15 1038.2
$$


>>>>>>>>>>>>>>>>>>>>>>>>>>>> KEY <<<<<<<<<<<<<<<<<<<<<<<<<<<
>                                                          <
>     SKY/WX - Sky Condition/Present Weather               <
>     TMP    - Temperature in Fahrenheit                   <
>     DP     - Dew Point in Fahrenheit                     <
>     RH     - Relative Humidity in Percent                <
>     WIND   - Direction (from) and Speed in MPH           <
>     PRES   - Mean Sea Level Pressure (inches of Hg)      <
>     WCI    - Wind Chill Index                            <
>     VSB    - Visibility in Miles                         <
>     HX     - Heat Index                                  <
>     TC     - Temperature in Celsius                      <
>     VRB    - Varibale Wind Direction                     <
>                                                          <
>>>>>>>>>>>>>>>>>>>>>>>>>>>> KEY <<<<<<<<<<<<<<<<<<<<<<<<<<<




USA.gov is the U.S. government's official web portal to all federal, state and local government web resources and services.